Home   Weather   Richmond   Past weeks
Flag for Canada

Past Weather in Richmond, British Columbia, Canada — Yesterday and Last 2 Weeks

Now
59 °F

Partly sunny.


Feels Like: 58 °F
Forecast: 59 / 54 °F
Wind: 7 mph from Southwest

Location: Vancouver International Airport

Current Time: May 24, 2019 at 6:16:44 pm

Latest Report: May 24, 2019 at 5:00 pm


Visibility: 20 mi

Pressure: 29.91 "Hg

Humidity: 77%

Dew Point: 52 °F

Location of RichmondLocation

Past Weather in Richmond — Graph

°F

Richmond Temperature Yesterday

Maximum temperature yesterday: 68 °F (at 4:00 pm)
Minimum temperature yesterday: 50 °F (at 5:00 am)
Average temperature yesterday: 61 °F

High & Low Weather Summary for the Past Weeks

 TemperatureHumidityPressure
High72 °F (May 10, 3:00 pm)100% (May 15, 4:00 am)30.05 "Hg (May 15, 4:00 am)
Low48 °F (May 13, 3:00 am)41% (May 10, 4:00 pm)29.54 "Hg (May 16, 3:00 pm)
Average58 °F78%29.83 "Hg
* Reported May 9 5:00 pm — May 24 5:00 pm, Richmond. Weather by CustomWeather, © 2019

Note: Actual official high and low records may vary slightly from our data, if they occured in-between our weather recording intervals... More about our weather records

Advertising

Richmond Weather History for the Previous 24 Hours

Scroll right to see more
 ConditionsComfort  
Time TempWeatherWind HumidityBarometerVisibility
5:00 pm
Fri, May 24
59 °FPartly sunny.7 mph77%29.91 "Hg20 mi
4:00 pm59 °FMore clouds than sun.8 mph77%29.91 "Hg20 mi
3:00 pm55 °FMostly cloudy.7 mph88%29.91 "Hg15 mi
2:00 pm55 °FLight rain. Cloudy.8 mph88%29.91 "Hg15 mi
1:00 pm55 °FLight rain. Mostly cloudy.10 mph94%29.90 "Hg15 mi
12:46 pm55 °FLight rain. Mostly cloudy.8 mph94%29.90 "Hg12 mi
12:00 pm55 °FSprinkles. Mostly cloudy.13 mph82%29.89 "Hg15 mi
11:45 am55 °FSprinkles. Mostly cloudy.13 mph82%29.89 "Hg15 mi
11:00 am57 °FMostly cloudy.18 mph77%29.88 "Hg15 mi
10:00 am57 °FCloudy.22 mph77%29.87 "Hg20 mi
9:00 am55 °FCloudy.17 mph82%29.87 "Hg15 mi
8:00 am55 °FCloudy.18 mph77%29.86 "Hg15 mi
7:00 am55 °FPartly sunny.18 mph77%29.85 "Hg20 mi
6:00 am54 °FPartly sunny.13 mph82%29.84 "Hg20 mi
5:00 am55 °FPassing clouds.18 mph77%29.83 "Hg20 mi
4:00 am57 °FMostly cloudy.16 mph77%29.84 "Hg20 mi
3:00 am57 °FMostly cloudy.20 mph77%29.83 "Hg20 mi
2:00 am57 °FMostly cloudy.24 mph77%29.81 "Hg20 mi
1:00 am59 °FLight rain. Mostly cloudy.14 mph77%29.82 "Hg15 mi
12:00 am61 °FLight rain. Mostly cloudy.18 mph83%29.82 "Hg20 mi
11:00 pm
Thu, May 23
61 °FLight rain. Mostly cloudy.12 mph77%29.83 "Hg20 mi
10:00 pm63 °FPassing clouds.9 mph68%29.83 "Hg30 mi
9:00 pm63 °FPassing clouds.15 mph73%29.82 "Hg30 mi
8:00 pm64 °FPassing clouds.10 mph64%29.82 "Hg30 mi
7:00 pm66 °FPassing clouds.5 mph68%29.83 "Hg30 mi
6:00 pm64 °FPassing clouds.9 mph73%29.85 "Hg30 mi
Weather by CustomWeather, © 2019

See weather overview